GW4615 Weather Reports


Display with metric or nautical units.
time (UTC)temp
F
wind
direction
speed
MPH
gust
MPH
rain 1hr
in
rain 24hr
in
rain mn
in
humidity
%
barometer
mb
20260509223755 66 258 2.0 2.0 0.00 0.00 0.00 54 1009.9
20260509223252 66 243 2.0 3.0 0.00 0.00 0.00 53 1010.0
20260509222749 66 259 2.0 2.0 0.00 0.00 0.00 54 1009.8
20260509222244 67 250 2.0 2.0 0.00 0.00 0.00 54 1009.8
20260509221740 68 256 2.0 2.0 0.00 0.00 0.00 52 1009.8
20260509221237 69 275 1.0 2.0 0.00 0.00 0.00 49 1010.1
20260509220732 69 279 1.0 3.0 0.00 0.00 0.00 48 1009.6
20260509220229 69 359 1.0 1.0 0.00 0.00 0.00 48 1009.9
20260509215725 69 326 2.0 4.0 0.00 0.00 0.00 47 1010.0
20260509215221 69 350 3.0 4.0 0.00 0.00 0.00 45 1009.9
20260509214719 69 9 4.0 7.0 0.00 0.00 0.00 51 1009.9
20260509214215 69 33 3.0 8.0 0.00 0.00 0.00 50 1010.0
20260509213713 69 33 5.0 7.0 0.00 0.00 0.00 50 1009.6
20260509213208 69 35 6.0 8.0 0.00 0.00 0.00 49 1009.6
20260509212706 69 39 5.0 9.0 0.00 0.00 0.00 49 1009.6
20260509212203 69 28 5.0 9.0 0.00 0.00 0.00 49 1009.8
20260509211658 69 27 4.0 8.0 0.00 0.00 0.00 50 1009.5
20260509211155 70 52 6.0 8.0 0.00 0.00 0.00 47 1009.2
20260509210652 71 25 6.0 8.0 0.00 0.00 0.00 45 1009.5
20260509210149 71 355 2.0 6.0 0.00 0.00 0.00 48 1009.3
20260509205644 71 52 4.0 8.0 0.00 0.00 0.00 46 1009.3
20260509205143 71 34 5.0 9.0 0.00 0.00 0.00 47 1009.3
20260509204640 70 30 4.0 7.0 0.00 0.00 0.00 52 1009.2
20260509204136 70 21 6.0 8.0 0.00 0.00 0.00 49 1009.3
20260509203633 69 26 8.0 9.0 0.00 0.00 0.00 49 1009.2
20260509203131 69 22 6.0 9.0 0.00 0.00 0.00 50 1009.1
20260509202631 69 42 6.0 8.0 0.00 0.00 0.00 50 1009.1
20260509202126 69 32 5.0 6.0 0.00 0.00 0.00 48 1009.2
20260509201621 69 32 4.0 7.0 0.00 0.00 0.00 50 1009.1
20260509201119 69 36 6.0 7.0 0.00 0.00 0.00 48 1009.1
20260509200615 69 351 3.0 7.0 0.00 0.00 0.00 49 1009.1
20260509200110 69 17 6.0 7.0 0.00 0.00 0.00 47 1009.1
20260509195607 69 21 4.0 7.0 0.00 0.00 0.00 50 1008.9
20260509195101 69 14 6.0 7.0 0.00 0.00 0.00 49 1009.2
20260509194601 69 359 6.0 8.0 0.00 0.00 0.00 48 1009.4
20260509194059 70 67 3.0 6.0 0.00 0.00 0.00 47 1009.2
20260509193554 73 20 4.0 4.0 0.00 0.00 0.00 43 1009.2
20260509193050 74 171 2.0 3.0 0.00 0.00 0.00 39 1009.3
20260509192547 74 59 1.0 2.0 0.00 0.00 0.00 39 1009.2
20260509192042 74 230 3.0 8.0 0.00 0.00 0.00 38 1009.2
20260509191537 74 299 4.0 6.0 0.00 0.00 0.00 38 1009.3
20260509191033 74 99 1.0 4.0 0.00 0.00 0.00 38 1009.4
20260509190530 73 206 2.0 3.0 0.00 0.00 0.00 39 1009.6
20260509190028 74 140 3.0 8.0 0.00 0.00 0.00 39 1009.3
20260509185525 74 209 3.0 4.0 0.00 0.00 0.00 38 1009.4
20260509185021 75 256 3.0 7.0 0.00 0.00 0.00 37 1009.5
20260509184520 76 176 6.0 7.0 0.00 0.00 0.00 36 1009.2
20260509184015 76 139 5.0 7.0 0.00 0.00 0.00 36 1009.5
20260509183511 73 146 4.0 8.0 0.00 0.00 0.00 39 1009.9
20260509183007 72 118 3.0 9.0 0.00 0.00 0.00 41 1009.8
20260509182503 71 77 5.0 9.0 0.00 0.00 0.00 41 1009.9
20260509182000 71 328 1.0 3.0 0.00 0.00 0.00 41 1010.1
20260509181459 73 216 4.0 8.0 0.00 0.00 0.00 40 1010.0
20260509180956 72 145 2.0 4.0 0.00 0.00 0.00 44 1010.3
20260509180451 70 119 4.0 6.0 0.00 0.00 0.00 43 1010.2
20260509175949 69 137 2.0 3.0 0.00 0.00 0.00 44 1010.5
20260509175444 69 141 1.0 2.0 0.00 0.00 0.00 44 1010.6
20260509174941 68 255 2.0 3.0 0.00 0.00 0.00 45 1010.8
20260509174437 67 272 3.0 3.0 0.00 0.00 0.00 48 1010.8
20260509173933 67 229 2.0 2.0 0.00 0.00 0.00 47 1011.0
20260509173432 66 155 2.0 3.0 0.00 0.00 0.00 50 1011.0
20260509172929 67 147 4.0 4.0 0.00 0.00 0.00 49 1011.0
20260509172427 67 99 1.0 2.0 0.00 0.00 0.00 49 1011.0
20260509171922 67 178 1.0 2.0 0.00 0.00 0.00 50 1011.3
20260509171418 67 126 1.0 2.0 0.00 0.00 0.00 49 1011.3
20260509170915 65 95 0.0 3.0 0.00 0.00 0.00 49 1011.4
20260509170410 64 139 0.0 1.0 0.00 0.00 0.00 49 1011.5
20260509165907 63 65 1.0 2.0 0.00 0.00 0.00 53 1011.5
20260509165401 62 336 1.0 3.0 0.00 0.00 0.00 53 1011.4
20260509164857 62 45 2.0 3.0 0.00 0.00 0.00 57 1011.6
20260509164353 62 352 2.0 4.0 0.00 0.00 0.00 54 1011.7
20260509163849 61 50 4.0 6.0 0.00 0.00 0.00 57 1011.7
20260509163346 61 43 4.0 6.0 0.00 0.00 0.00 59 1011.6
20260509162845 60 34 4.0 6.0 0.00 0.00 0.00 60 1011.9
20260509162344 60 37 4.0 6.0 0.00 0.00 0.00 60 1012.1
20260509161840 60 34 4.0 7.0 0.00 0.00 0.00 60 1011.9
20260509161336 60 32 5.0 7.0 0.00 0.00 0.00 58 1012.1
20260509160832 61 22 5.0 8.0 0.00 0.00 0.00 59 1012.0
20260509160329 61 23 5.0 7.0 0.00 0.00 0.00 59 1011.9
20260509155823 61 26 6.0 8.0 0.00 0.00 0.00 58 1012.1
20260509155320 61 36 7.0 8.0 0.00 0.00 0.00 57 1012.0
20260509154817 62 39 5.0 8.0 0.00 0.00 0.00 57 1012.1
20260509154313 61 10 5.0 8.0 0.00 0.00 0.00 57 1011.8
20260509153810 61 45 7.0 9.0 0.00 0.00 0.00 56 1011.7
20260509153307 61 35 5.0 10.0 0.00 0.00 0.00 57 1011.7
20260509152803 61 49 7.0 9.0 0.00 0.00 0.00 57 1011.5
20260509152259 62 28 7.0 9.0 0.00 0.00 0.00 59 1011.5
20260509151757 62 14 7.0 10.0 0.00 0.00 0.00 58 1011.6
20260509151253 62 13 6.0 11.0 0.00 0.00 0.00 58 1011.5
20260509150752 63 24 6.0 10.0 0.00 0.00 0.00 57 1011.7
20260509150249 65 16 5.0 8.0 0.00 0.00 0.00 56 1011.5
20260509145746 67 1 1.0 2.0 0.00 0.00 0.00 46 1011.4
20260509145245 66 108 2.0 4.0 0.00 0.00 0.00 46 1011.5
20260509144743 65 204 0.0 2.0 0.00 0.00 0.00 49 1011.4
20260509144239 66 164 1.0 4.0 0.00 0.00 0.00 50 1011.5
20260509143736 65 215 2.0 3.0 0.00 0.00 0.00 48 1011.6
20260509143234 65 90 2.0 2.0 0.00 0.00 0.00 52 1011.4
20260509142730 64 199 1.0 2.0 0.00 0.00 0.00 51 1011.7
20260509142226 65 197 4.0 6.0 0.00 0.00 0.00 53 1011.6
20260509141722 63 94 2.0 3.0 0.00 0.00 0.00 54 1011.5
20260509141220 63 204 1.0 6.0 0.00 0.00 0.00 55 1011.7
20260509140716 63 158 2.0 2.0 0.00 0.00 0.00 54 1011.8
20260509140213 63 176 4.0 7.0 0.00 0.00 0.00 54 1012.0
20260509135710 62 139 1.0 4.0 0.00 0.00 0.00 56 1012.0
20260509135208 62 152 3.0 3.0 0.00 0.00 0.00 52 1012.1
20260509134705 61 171 1.0 3.0 0.00 0.00 0.00 55 1012.1
20260509134202 60 135 3.0 4.0 0.00 0.00 0.00 54 1012.2
20260509133659 59 105 3.0 3.0 0.00 0.00 0.00 54 1012.3
20260509133156 59 211 0.0 2.0 0.00 0.00 0.00 59 1012.4
20260509132654 58 228 0.0 1.0 0.00 0.00 0.00 59 1012.5
20260509132153 57 228 1.0 3.0 0.00 0.00 0.00 59 1012.4
20260509131648 56 203 1.0 2.0 0.00 0.00 0.00 64 1012.4
20260509131146 56 198 1.0 1.0 0.00 0.00 0.00 66 1012.4
20260509130641 56 112 0.0 0.0 0.00 0.00 0.00 64 1012.1
20260509130138 57 147 0.0 0.0 0.00 0.00 0.00 66 1012.2
20260509125635 57 167 0.0 0.0 0.00 0.00 0.00 66 1012.1
20260509125131 56 125 0.0 0.0 0.00 0.00 0.00 67 1012.0
20260509124628 56 151 0.0 0.0 0.00 0.00 0.00 67 1012.3
20260509124125 56 150 0.0 0.0 0.00 0.00 0.00 66 1012.1
20260509123623 55 164 0.0 0.0 0.00 0.00 0.00 65 1012.1
20260509123119 55 257 0.0 0.0 0.00 0.00 0.00 66 1012.3
20260509122615 55 257 0.0 0.0 0.00 0.00 0.00 65 1012.2
20260509122113 55 278 0.0 0.0 0.00 0.00 0.00 66 1012.4
20260509121609 54 278 0.0 0.0 0.00 0.00 0.00 66 1012.3
20260509121107 54 303 0.0 0.0 0.00 0.00 0.00 64 1012.4
20260509120605 54 3 1.0 2.0 0.00 0.00 0.00 68 1012.5
20260509115559 54 138 0.0 0.0 0.00 0.00 0.00 63 1012.4
20260509115057 54 176 0.0 1.0 0.00 0.00 0.00 63 1012.2
20260509114555 54 189 0.0 1.0 0.00 0.00 0.00 63 1012.1
20260509114054 54 203 0.0 1.0 0.00 0.00 0.00 64 1012.3
20260509113552 54 196 1.0 3.0 0.00 0.00 0.00 64 1012.2
20260509113049 54 156 0.0 2.0 0.00 0.00 0.00 63 1011.9
20260509112545 54 155 3.0 3.0 0.00 0.00 0.00 63 1012.2
20260509112042 54 91 1.0 1.0 0.00 0.00 0.00 63 1012.0
20260509111540 54 214 0.0 1.0 0.00 0.00 0.00 64 1012.0
20260509111037 54 142 3.0 3.0 0.00 0.00 0.00 63 1012.0
20260509110533 54 152 2.0 2.0 0.00 0.00 0.00 63 1011.7
20260509110030 55 228 3.0 4.0 0.00 0.00 0.00 62 1011.7
20260509105529 55 187 2.0 3.0 0.00 0.00 0.00 60 1011.8
20260509105026 55 205 4.0 4.0 0.00 0.00 0.00 60 1011.7
20260509104523 55 199 1.0 2.0 0.00 0.00 0.00 59 1011.8
20260509104020 54 207 2.0 4.0 0.00 0.00 0.00 61 1011.8
20260509103518 54 187 4.0 4.0 0.00 0.00 0.00 61 1011.6
20260509103016 54 205 0.0 3.0 0.00 0.00 0.00 61 1011.8
20260509102513 53 193 0.0 3.0 0.00 0.00 0.00 65 1011.8
20260509102009 52 188 2.0 3.0 0.00 0.00 0.00 66 1011.8
20260509101506 53 194 1.0 3.0 0.00 0.00 0.00 66 1011.9
20260509101003 53 209 0.0 1.0 0.00 0.00 0.00 65 1011.7
20260509100500 53 202 0.0 1.0 0.00 0.00 0.00 66 1011.9
20260509095956 53 206 2.0 3.0 0.00 0.00 0.00 62 1011.7
20260509095453 54 213 2.0 2.0 0.00 0.00 0.00 62 1011.7
20260509094951 55 168 0.0 2.0 0.00 0.00 0.00 59 1011.8
20260509094447 56 199 2.0 2.0 0.00 0.00 0.00 57 1011.9
20260509093944 56 208 3.0 4.0 0.00 0.00 0.00 54 1012.1
20260509093442 56 237 2.0 3.0 0.00 0.00 0.00 55 1012.1
20260509092940 56 223 2.0 4.0 0.00 0.00 0.00 54 1012.1
20260509092437 56 208 3.0 4.0 0.00 0.00 0.00 53 1012.2
20260509091936 56 215 2.0 3.0 0.00 0.00 0.00 55 1011.8
20260509091432 56 226 2.0 3.0 0.00 0.00 0.00 53 1012.1
20260509090930 56 212 2.0 4.0 0.00 0.00 0.00 53 1012.0
20260509090427 56 214 1.0 3.0 0.00 0.00 0.00 53 1012.0
20260509085924 56 188 0.0 3.0 0.00 0.00 0.00 53 1012.0
20260509085421 56 214 1.0 4.0 0.00 0.00 0.00 52 1012.0
20260509084917 56 200 1.0 2.0 0.00 0.00 0.00 52 1012.0
20260509084414 56 212 1.0 3.0 0.00 0.00 0.00 53 1012.2
20260509083912 56 209 2.0 3.0 0.00 0.00 0.00 52 1012.1
20260509083409 56 159 2.0 4.0 0.00 0.00 0.00 52 1012.3
20260509082905 56 207 3.0 4.0 0.00 0.00 0.00 52 1012.2
20260509082403 56 195 2.0 4.0 0.00 0.00 0.00 51 1012.3
20260509081859 56 175 1.0 4.0 0.00 0.00 0.00 51 1012.2
20260509081356 56 156 0.0 3.0 0.00 0.00 0.00 52 1012.2
20260509080854 56 188 4.0 6.0 0.00 0.00 0.00 52 1012.2
20260509080352 57 234 2.0 6.0 0.00 0.00 0.00 51 1012.1
20260509075850 57 174 2.0 3.0 0.00 0.00 0.00 51 1012.1
20260509075347 57 208 3.0 8.0 0.00 0.00 0.00 51 1012.2
20260509074844 57 217 2.0 6.0 0.00 0.00 0.00 51 1012.3
20260509074342 57 255 3.0 6.0 0.00 0.00 0.00 51 1012.4
20260509073838 57 212 3.0 6.0 0.00 0.00 0.00 50 1012.3
20260509073334 56 164 2.0 6.0 0.00 0.00 0.00 51 1012.4
20260509072831 56 219 2.0 8.0 0.00 0.00 0.00 53 1012.4
20260509072327 56 211 2.0 3.0 0.00 0.00 0.00 53 1012.4
20260509071824 56 230 2.0 6.0 0.00 0.00 0.00 53 1012.5
20260509071321 56 140 2.0 6.0 0.00 0.00 0.00 52 1012.3
20260509070818 56 154 2.0 4.0 0.00 0.00 0.00 53 1012.3
20260509070315 55 130 1.0 4.0 0.00 0.00 0.00 55 1012.4
20260509065811 55 192 2.0 2.0 0.00 0.00 0.00 57 1012.5
20260509065307 54 228 2.0 2.0 0.00 0.00 0.00 60 1012.4
20260509064804 55 203 2.0 3.0 0.00 0.00 0.00 59 1012.5
20260509064301 55 231 1.0 2.0 0.00 0.00 0.00 58 1012.5
20260509063759 55 200 1.0 2.0 0.00 0.00 0.00 58 1012.6
20260509063255 55 181 0.0 3.0 0.00 0.00 0.00 57 1012.5
20260509062752 53 201 1.0 4.0 0.00 0.00 0.00 59 1012.5
20260509062249 52 216 3.0 3.0 0.00 0.00 0.00 63 1012.4
20260509061746 52 184 1.0 2.0 0.00 0.00 0.00 65 1012.7
20260509061244 53 211 0.0 1.0 0.00 0.00 0.00 63 1012.9
20260509060741 53 201 2.0 3.0 0.00 0.00 0.00 60 1012.7
20260509060237 52 234 1.0 4.0 0.00 0.00 0.00 63 1012.7
20260509055733 51 217 2.0 3.0 0.00 0.00 0.00 66 1012.6
20260509055229 51 192 0.0 1.0 0.00 0.00 0.00 67 1012.8
20260509054726 52 203 2.0 2.0 0.00 0.00 0.00 66 1012.6
20260509054223 52 215 2.0 2.0 0.00 0.00 0.00 64 1013.0
20260509053722 53 217 1.0 2.0 0.00 0.00 0.00 64 1012.8
20260509053218 52 213 0.0 1.0 0.00 0.00 0.00 64 1012.7
20260509052716 53 162 0.0 1.0 0.00 0.00 0.00 63 1012.8
20260509052213 53 219 0.0 1.0 0.00 0.00 0.00 63 1012.8
20260509051711 54 180 0.0 1.0 0.00 0.00 0.00 60 1012.9
20260509051209 55 153 1.0 1.0 0.00 0.00 0.00 58 1013.1
20260509050705 56 192 1.0 1.0 0.00 0.00 0.00 57 1013.0
20260509050202 56 232 1.0 2.0 0.00 0.00 0.00 56 1012.9
20260509045659 56 177 1.0 2.0 0.00 0.00 0.00 55 1012.8
20260509045156 57 222 2.0 3.0 0.00 0.00 0.00 54 1012.9
20260509044653 56 238 2.0 2.0 0.00 0.00 0.00 55 1012.8
20260509044150 55 218 3.0 4.0 0.00 0.00 0.00 59 1012.9
20260509043647 55 185 1.0 3.0 0.00 0.00 0.00 59 1013.0
20260509043142 55 207 1.0 2.0 0.00 0.00 0.00 60 1012.5
20260509042639 55 196 2.0 3.0 0.00 0.00 0.00 59 1012.8
20260509042135 56 210 0.0 2.0 0.00 0.00 0.00 58 1012.7
20260509041632 55 160 0.0 2.0 0.00 0.00 0.00 57 1012.7
20260509041129 55 168 1.0 2.0 0.00 0.00 0.00 60 1012.7
20260509040628 54 170 0.0 3.0 0.00 0.00 0.00 61 1012.9
20260509040125 54 207 1.0 2.0 0.00 0.00 0.00 64 1012.9
20260509035621 54 135 1.0 2.0 0.00 0.00 0.00 63 1012.7
20260509035118 54 230 0.0 2.0 0.00 0.00 0.00 64 1012.9
20260509034616 54 218 1.0 1.0 0.00 0.00 0.00 64 1012.7
20260509034113 54 174 0.0 0.0 0.00 0.00 0.00 62 1012.7
20260509033610 54 227 0.0 2.0 0.00 0.00 0.00 63 1012.8
20260509033106 54 251 1.0 1.0 0.00 0.00 0.00 64 1012.9
20260509032604 53 218 0.0 0.0 0.00 0.00 0.00 66 1012.8
20260509032101 54 218 0.0 0.0 0.00 0.00 0.00 66 1012.8
20260509031559 54 218 0.0 1.0 0.00 0.00 0.00 66 1013.0
20260509031055 55 235 0.0 0.0 0.00 0.00 0.00 66 1012.9
20260509030554 55 148 0.0 1.0 0.00 0.00 0.00 62 1012.8
20260509030050 54 204 1.0 3.0 0.00 0.00 0.00 62 1012.9
20260509025546 54 198 0.0 1.0 0.00 0.00 0.00 65 1013.0
20260509025042 54 211 0.0 0.0 0.00 0.00 0.00 66 1012.8
20260509024538 54 212 0.0 1.0 0.00 0.00 0.00 66 1012.8
20260509024034 54 185 0.0 0.0 0.00 0.00 0.00 66 1012.9
20260509023532 55 234 0.0 0.0 0.00 0.00 0.00 66 1012.9
20260509023029 56 226 0.0 1.0 0.00 0.00 0.00 62 1012.7
20260509022525 57 200 0.0 2.0 0.00 0.00 0.00 55 1012.7
20260509022023 56 232 4.0 4.0 0.00 0.00 0.00 55 1012.9
20260509021520 56 220 1.0 3.0 0.00 0.00 0.00 57 1012.7
20260509021017 56 238 2.0 6.0 0.00 0.00 0.00 57 1012.8
20260509020515 55 228 3.0 7.0 0.00 0.00 0.00 58 1012.7
20260509020012 54 208 1.0 2.0 0.00 0.00 0.00 61 1012.8
20260509015511 53 228 2.0 2.0 0.00 0.00 0.00 64 1012.9
20260509015008 53 231 0.0 1.0 0.00 0.00 0.00 64 1012.6
20260509014504 53 252 2.0 2.0 0.00 0.00 0.00 66 1012.4
20260509014000 53 169 0.0 0.0 0.00 0.00 0.00 66 1012.5
20260509013458 55 186 0.0 1.0 0.00 0.00 0.00 65 1012.5
20260509012953 55 236 1.0 1.0 0.00 0.00 0.00 60 1012.6
20260509012450 55 254 0.0 0.0 0.00 0.00 0.00 57 1012.7
20260509011947 55 255 0.0 0.0 0.00 0.00 0.00 60 1012.8
20260509011444 55 256 0.0 0.0 0.00 0.00 0.00 60 1012.5
20260509010942 55 255 0.0 0.0 0.00 0.00 0.00 58 1012.7
20260509010439 55 270 0.0 0.0 0.00 0.00 0.00 58 1012.5
20260509005936 55 270 0.0 0.0 0.00 0.00 0.00 56 1012.5
20260509005435 56 271 0.0 0.0 0.00 0.00 0.00 56 1012.4
20260509004934 57 271 0.0 0.0 0.00 0.00 0.00 58 1012.5
20260509004431 58 287 0.0 1.0 0.00 0.00 0.00 52 1012.4
20260509003929 58 336 1.0 2.0 0.00 0.00 0.00 51 1012.4
20260509003426 57 270 2.0 3.0 0.00 0.00 0.00 51 1012.5
20260509002923 58 210 2.0 3.0 0.00 0.00 0.00 51 1012.4
20260509002421 59 240 1.0 2.0 0.00 0.00 0.00 49 1012.4
20260509001918 61 246 2.0 3.0 0.00 0.00 0.00 48 1012.2
20260509001414 61 260 3.0 4.0 0.00 0.00 0.00 45 1012.0
20260509000912 61 207 5.0 7.0 0.00 0.00 0.00 43 1012.1
20260509000410 60 235 5.0 7.0 0.00 0.00 0.00 44 1012.3
20260508235905 61 242 1.0 1.0 0.00 0.00 0.00 47 1012.1
20260508235403 62 276 1.0 2.0 0.00 0.00 0.00 46 1011.9
20260508234859 63 273 4.0 7.0 0.00 0.00 0.00 43 1011.7
20260508234356 63 264 4.0 7.0 0.00 0.00 0.00 41 1011.9
20260508233855 63 261 5.0 8.0 0.00 0.00 0.00 40 1011.9
20260508233354 63 258 2.0 7.0 0.00 0.00 0.00 42 1011.7
20260508232850 62 270 2.0 6.0 0.00 0.00 0.00 42 1011.6
20260508232346 63 255 2.0 3.0 0.00 0.00 0.00 43 1011.7
20260508231844 63 253 2.0 3.0 0.00 0.00 0.00 42 1011.7
20260508231340 64 243 2.0 3.0 0.00 0.00 0.00 43 1011.5
20260508230838 64 260 3.0 4.0 0.00 0.00 0.00 39 1011.7
20260508230334 63 264 4.0 4.0 0.00 0.00 0.00 40 1011.5
20260508225832 64 275 2.0 3.0 0.00 0.00 0.00 40 1011.9
20260508225328 64 259 2.0 2.0 0.00 0.00 0.00 41 1011.6
20260508224826 64 259 2.0 3.0 0.00 0.00 0.00 42 1011.8
20260508224323 64 257 2.0 2.0 0.00 0.00 0.00 38 1011.8